Time,TemperatureF,DewpointF,PressureIn,WindDirection,WindDirectionDegrees,WindSpeedMPH,WindSpeedGustMPH,Humidity,HourlyPrecipIn,Conditions,Clouds,dailyrainin,SoftwareType,DateUTC
2013-06-11 00:12:00,70.5,38.0,29.53,WSW,257,0.0,2.0,31,0.00,,,0.00,weatherlink.com 1.10,2013-06-11 06:12:00,
2013-06-11 00:27:00,70.6,38.0,29.52,WSW,257,0.0,0.0,31,0.00,,,0.00,weatherlink.com 1.10,2013-06-11 06:27:00,
2013-06-11 00:42:00,70.1,39.0,29.52,WSW,257,0.0,1.0,32,0.00,,,0.00,weatherlink.com 1.10,2013-06-11 06:42:00,
2013-06-11 00:57:00,69.1,39.0,29.51,WSW,257,0.0,1.0,33,0.00,,,0.00,weatherlink.com 1.10,2013-06-11 06:57:00,
2013-06-11 01:12:00,67.8,37.0,29.52,WSW,257,0.0,1.0,32,0.00,,,0.00,weatherlink.com 1.10,2013-06-11 07:12:00,
2013-06-11 01:27:00,67.9,39.0,29.51,WSW,257,0.0,1.0,35,0.00,,,0.00,weatherlink.com 1.10,2013-06-11 07:27:00,
2013-06-11 01:42:00,67.0,41.0,29.51,WSW,257,0.0,0.0,39,0.00,,,0.00,weatherlink.com 1.10,2013-06-11 07:42:00,
2013-06-11 01:57:00,65.8,40.0,29.51,WSW,257,0.0,0.0,39,0.00,,,0.00,weatherlink.com 1.10,2013-06-11 07:57:00,
2013-06-11 02:13:00,64.8,39.0,29.50,WSW,257,0.0,0.0,39,0.00,,,0.00,weatherlink.com 1.10,2013-06-11 08:13:00,
2013-06-11 02:28:00,63.6,41.0,29.50,WSW,257,0.0,0.0,43,0.00,,,0.00,weatherlink.com 1.10,2013-06-11 08:28:00,
2013-06-11 02:43:00,62.6,41.0,29.50,WSW,257,0.0,0.0,46,0.00,,,0.00,weatherlink.com 1.10,2013-06-11 08:43:00,
2013-06-11 02:58:00,62.8,42.0,29.50,WSW,257,0.0,2.0,46,0.00,,,0.00,weatherlink.com 1.10,2013-06-11 08:58:00,
2013-06-11 03:13:00,62.4,40.0,29.50,WSW,257,0.0,1.0,44,0.00,,,0.00,weatherlink.com 1.10,2013-06-11 09:13:00,
2013-06-11 03:28:00,63.5,37.0,29.51,WSW,249,0.0,1.0,38,0.00,,,0.00,weatherlink.com 1.10,2013-06-11 09:28:00,
2013-06-11 03:43:00,64.1,36.0,29.51,WSW,249,0.0,1.0,36,0.00,,,0.00,weatherlink.com 1.10,2013-06-11 09:43:00,
2013-06-11 04:13:00,63.6,37.0,29.52,WSW,249,0.0,0.0,37,0.00,,,0.00,weatherlink.com 1.10,2013-06-11 10:13:00,
2013-06-11 04:28:00,62.7,37.0,29.52,WSW,249,0.0,2.0,39,0.00,,,0.00,weatherlink.com 1.10,2013-06-11 10:28:00,
2013-06-11 04:43:00,61.8,37.0,29.52,WSW,249,0.0,1.0,40,0.00,,,0.00,weatherlink.com 1.10,2013-06-11 10:43:00,
2013-06-11 04:58:00,62.8,35.0,29.52,WSW,249,0.0,1.0,35,0.00,,,0.00,weatherlink.com 1.10,2013-06-11 10:58:00,
2013-06-11 05:13:00,64.5,34.0,29.52,WSW,249,0.0,0.0,32,0.00,,,0.00,weatherlink.com 1.10,2013-06-11 11:13:00,
2013-06-11 05:28:00,63.6,35.0,29.53,WSW,249,0.0,0.0,35,0.00,,,0.00,weatherlink.com 1.10,2013-06-11 11:28:00,
2013-06-11 05:43:00,63.3,34.0,29.53,WSW,249,0.0,0.0,34,0.00,,,0.00,weatherlink.com 1.10,2013-06-11 11:43:00,
2013-06-11 05:58:00,63.7,38.0,29.53,WSW,249,0.0,0.0,39,0.00,,,0.00,weatherlink.com 1.10,2013-06-11 11:58:00,
2013-06-11 06:13:00,63.2,38.0,29.54,WSW,249,0.0,1.0,39,0.00,,,0.00,weatherlink.com 1.10,2013-06-11 12:13:00,
2013-06-11 06:28:00,63.6,39.0,29.54,WSW,249,1.0,2.0,40,0.00,,,0.00,weatherlink.com 1.10,2013-06-11 12:28:00,
2013-06-11 06:43:00,64.7,40.0,29.53,WSW,249,0.0,1.0,41,0.00,,,0.00,weatherlink.com 1.10,2013-06-11 12:43:00,
2013-06-11 06:58:00,65.9,39.0,29.54,South,171,0.0,2.0,37,0.00,,,0.00,weatherlink.com 1.10,2013-06-11 12:58:00,
2013-06-11 07:13:00,66.8,40.0,29.53,South,171,0.0,1.0,38,0.00,,,0.00,weatherlink.com 1.10,2013-06-11 13:13:00,
2013-06-11 07:28:00,68.1,41.0,29.53,South,171,0.0,0.0,37,0.00,,,0.00,weatherlink.com 1.10,2013-06-11 13:28:00,
2013-06-11 07:43:00,69.6,40.0,29.53,South,172,1.0,2.0,34,0.00,,,0.00,weatherlink.com 1.10,2013-06-11 13:43:00,
2013-06-11 07:58:00,71.3,41.0,29.52,South,172,0.0,1.0,34,0.00,,,0.00,weatherlink.com 1.10,2013-06-11 13:58:00,
2013-06-11 08:13:00,73.3,42.0,29.52,WSW,255,0.0,1.0,33,0.00,,,0.00,weatherlink.com 1.10,2013-06-11 14:13:00,
2013-06-11 08:28:00,75.6,42.0,29.52,WSW,255,0.0,1.0,30,0.00,,,0.00,weatherlink.com 1.10,2013-06-11 14:28:00,
2013-06-11 08:43:00,76.4,42.0,29.51,SSE,166,0.0,1.0,29,0.00,,,0.00,weatherlink.com 1.10,2013-06-11 14:43:00,
2013-06-11 08:58:00,80.1,34.0,29.50,South,185,2.0,6.0,19,0.00,,,0.00,weatherlink.com 1.10,2013-06-11 14:58:00,
2013-06-11 09:13:00,82.5,32.0,29.50,South,190,2.0,7.0,16,0.00,,,0.00,weatherlink.com 1.10,2013-06-11 15:13:00,
2013-06-11 09:28:00,83.7,33.0,29.49,SSE,152,2.0,5.0,16,0.00,,,0.00,weatherlink.com 1.10,2013-06-11 15:28:00,
2013-06-11 09:44:00,84.9,32.0,29.48,South,183,2.0,9.0,15,0.00,,,0.00,weatherlink.com 1.10,2013-06-11 15:44:00,
2013-06-11 09:59:00,86.2,32.0,29.48,SSW,202,5.0,8.0,14,0.00,,,0.00,weatherlink.com 1.10,2013-06-11 15:59:00,
2013-06-11 10:14:00,86.9,32.0,29.47,SE,145,2.0,6.0,14,0.00,,,0.00,weatherlink.com 1.10,2013-06-11 16:14:00,
2013-06-11 10:29:00,88.4,25.0,29.47,SE,146,4.0,8.0,10,0.00,,,0.00,weatherlink.com 1.10,2013-06-11 16:29:00,
2013-06-11 10:44:00,89.8,29.0,29.47,WSW,242,2.0,4.0,11,0.00,,,0.00,weatherlink.com 1.10,2013-06-11 16:44:00,
2013-06-11 10:59:00,90.5,27.0,29.46,South,183,0.0,5.0,10,0.00,,,0.00,weatherlink.com 1.10,2013-06-11 16:59:00,
2013-06-11 11:14:00,92.1,23.0,29.46,SW,224,0.0,4.0,8,0.00,,,0.00,weatherlink.com 1.10,2013-06-11 17:14:00,
2013-06-11 11:29:00,92.9,17.0,29.46,WSW,245,4.0,10.0,6,0.00,,,0.00,weatherlink.com 1.10,2013-06-11 17:29:00,
2013-06-11 11:44:00,93.0,17.0,29.45,South,184,4.0,7.0,6,0.00,,,0.00,weatherlink.com 1.10,2013-06-11 17:44:00,
2013-06-11 11:59:00,93.8,8.0,29.45,SW,235,0.0,11.0,4,0.00,,,0.00,weatherlink.com 1.10,2013-06-11 17:59:00,
2013-06-11 12:14:00,94.4,18.0,29.44,WSW,240,4.0,5.0,6,0.00,,,0.00,weatherlink.com 1.10,2013-06-11 18:14:00,
2013-06-11 12:29:00,93.8,-21.0,29.44,West,270,9.0,22.0,1,0.00,,,0.00,weatherlink.com 1.10,2013-06-11 18:29:00,
2013-06-11 12:44:00,93.7,-21.0,29.44,NW,309,5.0,22.0,1,0.00,,,0.00,weatherlink.com 1.10,2013-06-11 18:44:00,
2013-06-11 12:59:00,93.9,-99.9,29.44,SW,232,16.0,17.0,0,0.00,,,0.00,weatherlink.com 1.10,2013-06-11 18:59:00,
2013-06-11 13:14:00,93.7,-21.0,29.44,NW,304,9.0,19.0,1,0.00,,,0.00,weatherlink.com 1.10,2013-06-11 19:14:00,
2013-06-11 13:29:00,94.2,-99.9,29.44,WSW,249,10.0,22.0,0,0.00,,,0.00,weatherlink.com 1.10,2013-06-11 19:29:00,
2013-06-11 13:44:00,93.6,-99.9,29.43,West,265,4.0,27.0,0,0.00,,,0.00,weatherlink.com 1.10,2013-06-11 19:44:00,
2013-06-11 14:15:00,94.2,-99.9,29.42,WSW,243,8.0,26.0,0,0.00,,,0.00,weatherlink.com 1.10,2013-06-11 20:15:00,
2013-06-11 14:30:00,94.3,-99.9,29.42,West,270,5.0,22.0,0,0.00,,,0.00,weatherlink.com 1.10,2013-06-11 20:30:00,
2013-06-11 14:45:00,94.7,-99.9,29.41,SW,223,1.0,12.0,0,0.00,,,0.00,weatherlink.com 1.10,2013-06-11 20:45:00,
2013-06-11 15:00:00,94.9,-99.9,29.42,WSW,237,4.0,21.0,0,0.00,,,0.00,weatherlink.com 1.10,2013-06-11 21:00:00,
2013-06-11 15:15:00,94.8,-99.9,29.41,WSW,240,2.0,14.0,0,0.00,,,0.00,weatherlink.com 1.10,2013-06-11 21:15:00,
2013-06-11 15:30:00,94.6,-20.0,29.41,SW,230,2.0,11.0,1,0.00,,,0.00,weatherlink.com 1.10,2013-06-11 21:30:00,
2013-06-11 15:45:00,95.2,-20.0,29.41,West,281,2.0,8.0,1,0.00,,,0.00,weatherlink.com 1.10,2013-06-11 21:45:00,
2013-06-11 16:00:00,95.9,-20.0,29.41,West,266,4.0,5.0,1,0.00,,,0.00,weatherlink.com 1.10,2013-06-11 22:00:00,
2013-06-11 16:15:00,95.5,-20.0,29.40,WNW,300,2.0,14.0,1,0.00,,,0.00,weatherlink.com 1.10,2013-06-11 22:15:00,
2013-06-11 16:30:00,95.3,-6.0,29.40,West,259,2.0,10.0,2,0.00,,,0.00,weatherlink.com 1.10,2013-06-11 22:30:00,
2013-06-11 16:45:00,95.5,-20.0,29.39,NW,304,7.0,11.0,1,0.00,,,0.00,weatherlink.com 1.10,2013-06-11 22:45:00,
2013-06-11 17:00:00,95.4,-6.0,29.40,WSW,254,12.0,13.0,2,0.00,,,0.00,weatherlink.com 1.10,2013-06-11 23:00:00,
2013-06-11 17:16:00,94.1,-21.0,29.40,WSW,258,9.0,19.0,1,0.00,,,0.00,weatherlink.com 1.10,2013-06-11 23:16:00,
2013-06-11 17:31:00,93.7,-21.0,29.41,WSW,245,3.0,20.0,1,0.00,,,0.00,weatherlink.com 1.10,2013-06-11 23:31:00,
2013-06-11 17:46:00,93.8,-7.0,29.41,SW,235,2.0,16.0,2,0.00,,,0.00,weatherlink.com 1.10,2013-06-11 23:46:00,
2013-06-11 18:01:00,93.3,-21.0,29.41,West,272,8.0,17.0,1,0.00,,,0.00,weatherlink.com 1.10,2013-06-12 00:01:00,
2013-06-11 18:16:00,92.5,-8.0,29.41,NW,304,3.0,15.0,2,0.00,,,0.00,weatherlink.com 1.10,2013-06-12 00:16:00,
2013-06-11 19:01:00,90.6,-1.0,29.44,West,269,4.0,18.0,3,0.00,,,0.00,weatherlink.com 1.10,2013-06-12 01:01:00,
2013-06-11 19:16:00,90.2,5.0,29.45,NW,313,4.0,14.0,4,0.00,,,0.00,weatherlink.com 1.10,2013-06-12 01:16:00,
2013-06-11 19:31:00,89.5,5.0,29.45,West,273,2.0,13.0,4,0.00,,,0.00,weatherlink.com 1.10,2013-06-12 01:31:00,
2013-06-11 19:46:00,87.9,9.0,29.46,NW,317,4.0,12.0,5,0.00,,,0.00,weatherlink.com 1.10,2013-06-12 01:46:00,
2013-06-11 20:01:00,86.5,8.0,29.48,West,277,1.0,16.0,5,0.00,,,0.00,weatherlink.com 1.10,2013-06-12 02:01:00,
2013-06-11 20:16:00,85.7,7.0,29.48,WNW,294,4.0,16.0,5,0.00,,,0.00,weatherlink.com 1.10,2013-06-12 02:16:00,
2013-06-11 20:31:00,85.4,11.0,29.50,West,265,5.0,21.0,6,0.00,,,0.00,weatherlink.com 1.10,2013-06-12 02:31:00,
2013-06-11 20:47:00,84.8,11.0,29.51,WSW,255,2.0,14.0,6,0.00,,,0.00,weatherlink.com 1.10,2013-06-12 02:47:00,
2013-06-11 21:02:00,84.2,10.0,29.52,West,281,9.0,12.0,6,0.00,,,0.00,weatherlink.com 1.10,2013-06-12 03:02:00,
2013-06-11 21:17:00,83.6,13.0,29.53,WNW,290,9.0,12.0,7,0.00,,,0.00,weatherlink.com 1.10,2013-06-12 03:17:00,
2013-06-11 21:32:00,83.0,16.0,29.54,WNW,284,6.0,8.0,8,0.00,,,0.00,weatherlink.com 1.10,2013-06-12 03:32:00,
2013-06-11 21:47:00,82.8,16.0,29.55,West,271,3.0,10.0,8,0.00,,,0.00,weatherlink.com 1.10,2013-06-12 03:47:00,
2013-06-11 22:02:00,82.4,18.0,29.56,West,265,2.0,10.0,9,0.00,,,0.00,weatherlink.com 1.10,2013-06-12 04:02:00,
2013-06-11 22:17:00,81.0,22.0,29.57,WNW,286,1.0,3.0,11,0.00,,,0.00,weatherlink.com 1.10,2013-06-12 04:17:00,
2013-06-11 22:32:00,79.5,20.0,29.58,West,271,0.0,4.0,11,0.00,,,0.00,weatherlink.com 1.10,2013-06-12 04:32:00,
2013-06-11 22:47:00,76.9,24.0,29.58,West,271,0.0,1.0,14,0.00,,,0.00,weatherlink.com 1.10,2013-06-12 04:47:00,
2013-06-11 23:02:00,74.6,28.0,29.59,West,271,0.0,1.0,18,0.00,,,0.00,weatherlink.com 1.10,2013-06-12 05:02:00,
2013-06-11 23:17:00,72.5,27.0,29.59,West,271,0.0,0.0,18,0.00,,,0.00,weatherlink.com 1.10,2013-06-12 05:17:00,
2013-06-11 23:32:00,71.0,28.0,29.59,West,271,0.0,2.0,20,0.00,,,0.00,weatherlink.com 1.10,2013-06-12 05:32:00,
2013-06-11 23:47:00,70.5,30.0,29.60,West,271,0.0,1.0,22,0.00,,,0.00,weatherlink.com 1.10,2013-06-12 05:47:00,